Location: Anglesey
(53.1800°N, 4.2200°W)
Time: 05:09:46
(UTC+01:00)

N. Korean satellite - Pass Details

Date: 10 October 2017
Orbit: 459 x 517 km, 97.2° (Epoch: 22 October)

Event Time Altitude Azimuth Distance (km) Brightness Sun altitude
Rises 19:42:11 0° 186° (S) 2,560 10.3 -11.3°
Reaches altitude 10° 19:44:23 10° 195° (SSW) 1,673 9.4 -11.6°
Maximum altitude 19:47:42 35° 263° (W) 803 8.4 -12.1°
Drops below altitude 10° 19:51:00 10° 331° (NNW) 1,657 9.7 -12.6°
Sets 19:53:10 0° 340° (NNW) 2,531 10.6 -12.9°
